Погода в Переяславе

Украина / Киевская область     50°04′22″N   31°27′48″E
темп.,
°C
ветер,
м/с
пор.,
м/с
влажн.,
%
обл.,
%
осадки,
мм/ч
давл.,
гПа
погр.,
м
18 мая, вт
вт1800:00+15ююз22935 0.0 100320
03:00+14юз359397 0.0 100290
06:00+13ююз2390100 0.0 100391
09:00+15юв4689100 0.7 1003313
12:00+15юв459250 0.9 1002178
15:00+19ююв6874100 2.8 1000631
18:00+18ююв588180 4.8 1000335
21:00+14ю479151 8.4 1000250
19 мая, ср
ср1900:00+13ююв7109540 0.0 1000383
03:00+11ююв5109397 0.0 1000312
06:00+11ююв469688 0.0 1001231
09:00+14ююв4584100 0.0 1002549
12:00+16юв347189 0.1 1003716
15:00+16юз447559 0.2 1004570
18:00+17зюз457440 0.2 1005535
21:00+13сз699373 0.6 1006419
20 мая, чт
чт2000:00+12зсз6789100 0.0 1007543
03:00+12зсз6992100 0.1 1007487
06:00+12з5792100 0.2 1008511
09:00+12зсз678399 0.2 1008760
12:00+14зсз4678100 0.0 1009698
15:00+16зсз457098 0.1 1010731
18:00+17ссз1172100 0.1 1010386
21:00+13ю3587100 0.6 1011169
21 мая, пт
пт2100:00+13юв2295100 1.5 101195
03:00+13вюв3494100 4.4 1012169
06:00+13вюв3496100 2.0 1013255
09:00+13всв5794100 3.1 1013377
12:00+15в6884100 0.1 1013798
15:00+16всв6782100 0.3 1013672
18:00+16св698898 1.3 1013431
21:00+15ссв6995100 3.4 1013517
22 мая, сб
сб2200:00+14ссв61095100 0.5 1013430
03:00+13ссв61095100 0.6 1014437
06:00+13с6995100 0.1 1014428
09:00+14с5793100 0.1 1015597
12:00+16с7885100 0.1 1014729
15:00+17ссв6884100 0.1 1015581
18:00+17с578581 0.1 1016515
21:00+16св358895 0.1 1016132